User: anonymous   Login
Location: Unspecified
(0.0000°N, 0.0000°E)
Time: 23:29:32
(UTC+00:00)
Language:

Alouette 2 - Orbit

View from above orbital plane
View from above orbital plane
View from above satellite
View from above satellite

Ground track
Ground track

The orbit data is extracted from the following two-line orbital elements,

1  1804U 65098A   18140.43409454 +.00000036 +00000-0 +46004-5 0  9996
2  1804 079.8026 257.2267 1343093 073.0531 301.3097 12.25338973317726
Epoch (UTC): 20 May 2018 10:25:05
Eccentricity: 0.1343093
inclination: 79.8026°
perigee height: 502 km
apogee height: 2637 km
right ascension of ascending node: 257.2267°
argument of perigee: 73.0531°
revolutions per day: 12.25338973
mean anomaly at epoch: 301.3097°
orbit number at epoch: 31772

The dashed part of the orbit path shows where the satellite is in the earth's shadow,  

DLR